QPF
0.00 0.00 0.00 0.00 0.01 0.01 0.01 0.01 0.01 0.00 0.00 0.00 0.00 0.00 0.01 0.01 0.01 0.01 0.02 0.02 0.02 0.02 0.02 0.04 0.03 0.04 0.04 0.04 0.04 0.03 0.05 0.09 0.12 0.11 0.10 0.11 0.13 0.17 0.25 0.25 0.17 0.11 0.08 0.07
0.01 0.00 0.00 0.01 0.00 0.01 0.01 0.01 0.01 0.01 0.00 0.00 0.00 0.00 0.01 0.01 0.01 0.02 0.02 0.02 0.02 0.02 0.02 0.03 0.03 0.03 0.04 0.03 0.03 0.02 0.03 0.05 0.09 0.11 0.11 0.12 0.12 0.13 0.16 0.22 0.20 0.13 0.08 0.07
0.02 0.00 0.01 0.01 0.01 0.01 0.01 0.01 0.01 0.02 0.01 0.00 0.00 0.00 0.01 0.01 0.02 0.02 0.02 0.02 0.02 0.02 0.02 0.03 0.02 0.01 0.02 0.03 0.03 0.02 0.03 0.04 0.07 0.08 0.10 0.11 0.10 0.12 0.14 0.15 0.17 0.16 0.10 0.06
0.03 0.01 0.01 0.01 0.00 0.01 0.01 0.01 0.01 0.01 0.00 0.00 0.01 0.00 0.01 0.01 0.02 0.03 0.02 0.02 0.02 0.02 0.02 0.02 0.02 0.01 0.01 0.02 0.03 0.03 0.02 0.05 0.07 0.06 0.08 0.09 0.10 0.11 0.14 0.13 0.12 0.15 0.14 0.09
0.04 0.02 0.01 0.00 0.00 0.00 0.01 0.01 0.01 0.00 0.00 0.00 0.01 0.01 0.01 0.01 0.01 0.02 0.03 0.03 0.02 0.01 0.02 0.02 0.01 0.02 0.02 0.02 0.02 0.03 0.02 0.06 0.07 0.05 0.05 0.07 0.09 0.09 0.12 0.12 0.11 0.12 0.13 0.11
0.04 0.04 0.01 0.00 0.00 0.00 0.00 0.01 0.01 0.01 0.01 0.00 0.01 0.03 0.02 0.01 0.01 0.02 0.02 0.03 0.02 0.01 0.01 0.02 0.01 0.01 0.02 0.01 0.02 0.02 0.04 0.07 0.06 0.04 0.04 0.04 0.06 0.08 0.10 0.11 0.10 0.10 0.12 0.11
0.03 0.03 0.01 0.00 0.00 0.00 0.01 0.01 0.00 0.00 0.01 0.01 0.02 0.03 0.03 0.02 0.02 0.02 0.03 0.03 0.02 0.02 0.02 0.01 0.01 0.01 0.02 0.02 0.02 0.03 0.06 0.07 0.04 0.03 0.03 0.03 0.04 0.07 0.10 0.10 0.09 0.09 0.10 0.11
0.02 0.04 0.02 0.00 0.00 0.00 0.01 0.00 0.00 0.01 0.01 0.01 0.01 0.02 0.02 0.02 0.02 0.03 0.04 0.03 0.02 0.02 0.02 0.01 0.01 0.01 0.02 0.02 0.02 0.05 0.06 0.04 0.04 0.03 0.03 0.03 0.04 0.06 0.10 0.09 0.10 0.10 0.09 0.10
0.02 0.01 0.00 0.00 0.00 0.00 0.01 0.00 0.00 0.01 0.01 0.01 0.01 0.02 0.02 0.02 0.02 0.03 0.04 0.03 0.02 0.02 0.01 0.01 0.01 0.01 0.02 0.02 0.04 0.06 0.05 0.03 0.03 0.04 0.03 0.03 0.05 0.07 0.08 0.10 0.10 0.12 0.10 0.08
0.01 0.00 0.00 0.00 0.00 0.00 0.00 0.00 0.00 0.01 0.01 0.01 0.02 0.03 0.03 0.02 0.03 0.03 0.03 0.03 0.02 0.02 0.01 0.01 0.01 0.02 0.03 0.04 0.05 0.05 0.03 0.03 0.03 0.04 0.04 0.04 0.06 0.07 0.07 0.09 0.11 0.10 0.09 0.07
0.01 0.00 0.00 0.00 0.00 0.00 0.00 0.00 0.00 0.00 0.01 0.02 0.03 0.04 0.04 0.03 0.03 0.03 0.04 0.03 0.02 0.02 0.01 0.02 0.03 0.04 0.06 0.06 0.05 0.04 0.03 0.03 0.04 0.05 0.05 0.07 0.07 0.07 0.07 0.06 0.08 0.07 0.06 0.06
0.01 0.00 0.00 0.00 0.00 0.00 0.00 0.00 0.00 0.00 0.01 0.01 0.03 0.05 0.04 0.04 0.04 0.03 0.04 0.04 0.03 0.03 0.03 0.04 0.05 0.08 0.07 0.05 0.04 0.03 0.04 0.04 0.05 0.06 0.07 0.08 0.07 0.07 0.08 0.07 0.08 0.09 0.08 0.07
0.00 0.00 0.00 0.00 0.00 0.00 0.00 0.00 0.00 0.00 0.00 0.01 0.02 0.05 0.06 0.05 0.04 0.03 0.04 0.04 0.05 0.05 0.05 0.06 0.08 0.09 0.06 0.05 0.04 0.03 0.04 0.06 0.07 0.07 0.06 0.07 0.07 0.06 0.06 0.08 0.11 0.12 0.12 0.10
0.00 0.00 0.00 0.00 0.00 0.00 0.00 0.00 0.00 0.00 0.00 0.01 0.01 0.03 0.05 0.05 0.04 0.04 0.04 0.04 0.05 0.06 0.06 0.06 0.08 0.08 0.06 0.05 0.04 0.04 0.06 0.08 0.08 0.07 0.06 0.08 0.08 0.06 0.05 0.06 0.10 0.13 0.14 0.14
0.00 0.00 0.00 0.00 0.00 0.00 0.00 0.00 0.00 0.00 0.00 0.00 0.01 0.02 0.03 0.04 0.04 0.04 0.05 0.05 0.07 0.07 0.07 0.07 0.07 0.08 0.07 0.05 0.04 0.04 0.06 0.08 0.08 0.07 0.08 0.09 0.09 0.08 0.07 0.07 0.08 0.09 0.12 0.16
0.00 0.00 0.00 0.00 0.00 0.00 0.00 0.00 0.00 0.00 0.00 0.00 0.01 0.01 0.02 0.03 0.04 0.05 0.05 0.06 0.06 0.07 0.07 0.07 0.07 0.09 0.08 0.05 0.04 0.04 0.06 0.07 0.08 0.08 0.09 0.09 0.09 0.09 0.09 0.08 0.08 0.09 0.09 0.11
0.00 0.00 0.00 0.00 0.00 0.00 0.00 0.00 0.00 0.00 0.00 0.00 0.01 0.01 0.02 0.02 0.03 0.04 0.04 0.05 0.05 0.06 0.05 0.05 0.07 0.08 0.07 0.06 0.05 0.05 0.06 0.07 0.08 0.08 0.09 0.08 0.09 0.09 0.09 0.08 0.08 0.08 0.08 0.08
0.00 0.00 0.00 0.00 0.00 0.00 0.00 0.00 0.00 0.00 0.00 0.00 0.00 0.01 0.01 0.02 0.02 0.03 0.04 0.04 0.04 0.05 0.05 0.06 0.07 0.07 0.07 0.08 0.08 0.06 0.05 0.06 0.07 0.07 0.08 0.09 0.09 0.09 0.09 0.10 0.09 0.08 0.09 0.09
0.00 0.00 0.00 0.00 0.00 0.00 0.00 0.00 0.00 0.00 0.00 0.00 0.00 0.01 0.01 0.02 0.02 0.03 0.04 0.04 0.04 0.05 0.05 0.07 0.10 0.09 0.07 0.09 0.10 0.08 0.06 0.06 0.08 0.08 0.08 0.11 0.10 0.09 0.09 0.10 0.10 0.10 0.10 0.09
0.00 0.00 0.00 0.00 0.00 0.00 0.00 0.00 0.00 0.00 0.00 0.00 0.00 0.01 0.01 0.01 0.02 0.02 0.03 0.04 0.04 0.05 0.06 0.09 0.11 0.10 0.08 0.10 0.12 0.09 0.08 0.07 0.08 0.08 0.07 0.09 0.10 0.10 0.09 0.09 0.09 0.10 0.11 0.11
0.00 0.00 0.00 0.00 0.00 0.00 0.00 0.00 0.00 0.00 0.00 0.00 0.01 0.01 0.01 0.02 0.02 0.02 0.03 0.03 0.04 0.05 0.07 0.09 0.10 0.09 0.08 0.10 0.13 0.10 0.08 0.07 0.07 0.07 0.06 0.06 0.08 0.09 0.09 0.10 0.10 0.10 0.11 0.11
0.00 0.00 0.00 0.00 0.00 0.00 0.00 0.00 0.00 0.01 0.01 0.01 0.01 0.01 0.02 0.02 0.03 0.03 0.03 0.03 0.04 0.05 0.06 0.07 0.07 0.07 0.08 0.10 0.11 0.09 0.08 0.07 0.06 0.06 0.05 0.05 0.05 0.07 0.08 0.09 0.10 0.10 0.10 0.10
0.00 0.00 0.00 0.00 0.00 0.00 0.00 0.00 0.01 0.01 0.01 0.01 0.01 0.01 0.02 0.03 0.03 0.04 0.04 0.04 0.05 0.06 0.06 0.06 0.06 0.07 0.09 0.08 0.09 0.10 0.08 0.06 0.05 0.04 0.04 0.04 0.05 0.06 0.06 0.07 0.08 0.09 0.09 0.09
0.00 0.00 0.00 0.00 0.00 0.00 0.00 0.00 0.01 0.01 0.01 0.01 0.01 0.01 0.02 0.03 0.02 0.03 0.04 0.06 0.06 0.07 0.06 0.07 0.07 0.08 0.09 0.07 0.07 0.08 0.07 0.05 0.04 0.04 0.04 0.04 0.05 0.06 0.06 0.06 0.07 0.07 0.07 0.07
0.00 0.00 0.00 0.00 0.00 0.00 0.00 0.00 0.01 0.01 0.01 0.01 0.01 0.01 0.02 0.03 0.03 0.03 0.04 0.06 0.07 0.07 0.07 0.07 0.08 0.08 0.09 0.07 0.06 0.06 0.06 0.05 0.04 0.04 0.03 0.04 0.05 0.06 0.06 0.05 0.05 0.06 0.06 0.06
0.00 0.00 0.00 0.00 0.01 0.01 0.01 0.01 0.01 0.01 0.01 0.01 0.01 0.01 0.02 0.03 0.03 0.03 0.04 0.05 0.06 0.07 0.07 0.06 0.07 0.07 0.07 0.07 0.07 0.06 0.06 0.05 0.05 0.04 0.04 0.04 0.05 0.05 0.05 0.05 0.05 0.05 0.05 0.05
0.01 0.01 0.01 0.01 0.01 0.01 0.01 0.01 0.01 0.01 0.01 0.02 0.02 0.01 0.02 0.03 0.03 0.03 0.04 0.04 0.05 0.06 0.06 0.06 0.06 0.07 0.07 0.07 0.07 0.06 0.06 0.06 0.06 0.06 0.05 0.05 0.05 0.05 0.05 0.04 0.04 0.04 0.05 0.05
MSLP
1011.65 1011.46 1011.27 1011.02 1010.67 1010.18 1009.55 1008.77 1007.89 1006.94 1006.00 1005.13 1004.39 1003.80 1003.37 1003.09 1002.92 1002.82 1002.75 1002.69 1002.63 1002.57 1002.55 1002.58 1002.68 1002.87 1003.11 1003.37 1003.58 1003.70 1003.64 1003.38 1002.90 1002.23 1001.42 1000.55 999.72 999.02 998.52 998.29 998.34 998.66 999.23 999.97
1010.29 1010.00 1009.68 1009.32 1008.88 1008.36 1007.75 1007.07 1006.35 1005.63 1004.97 1004.38 1003.91 1003.56 1003.31 1003.15 1003.03 1002.91 1002.79 1002.64 1002.47 1002.32 1002.21 1002.18 1002.26 1002.44 1002.70 1003.01 1003.29 1003.46 1003.48 1003.28 1002.86 1002.23 1001.44 1000.56 999.70 998.93 998.36 998.03 997.97 998.18 998.64 999.29
1008.94 1008.59 1008.20 1007.78 1007.31 1006.79 1006.23 1005.67 1005.12 1004.62 1004.19 1003.86 1003.63 1003.48 1003.40 1003.33 1003.26 1003.14 1002.97 1002.74 1002.49 1002.24 1002.05 1001.95 1001.98 1002.13 1002.38 1002.69 1002.99 1003.21 1003.27 1003.14 1002.77 1002.19 1001.43 1000.57 999.70 998.89 998.25 997.83 997.66 997.76 998.11 998.67
1007.76 1007.39 1006.99 1006.56 1006.11 1005.64 1005.17 1004.73 1004.34 1004.03 1003.80 1003.67 1003.62 1003.62 1003.65 1003.65 1003.60 1003.47 1003.25 1002.96 1002.62 1002.29 1002.02 1001.85 1001.81 1001.90 1002.12 1002.41 1002.71 1002.94 1003.04 1002.94 1002.63 1002.10 1001.39 1000.56 999.69 998.86 998.17 997.66 997.39 997.38 997.62 998.08
1006.83 1006.49 1006.13 1005.75 1005.36 1004.98 1004.62 1004.30 1004.05 1003.88 1003.80 1003.80 1003.86 1003.95 1004.03 1004.06 1004.00 1003.84 1003.57 1003.21 1002.80 1002.39 1002.04 1001.79 1001.67 1001.71 1001.87 1002.12 1002.40 1002.63 1002.75 1002.69 1002.43 1001.96 1001.30 1000.50 999.64 998.80 998.05 997.47 997.10 996.98 997.12 997.50
1006.18 1005.90 1005.61 1005.32 1005.03 1004.76 1004.52 1004.32 1004.18 1004.12 1004.12 1004.19 1004.29 1004.40 1004.47 1004.47 1004.36 1004.14 1003.81 1003.38 1002.90 1002.42 1001.99 1001.67 1001.49 1001.46 1001.57 1001.78 1002.03 1002.26 1002.39 1002.37 1002.16 1001.74 1001.12 1000.36 999.51 998.65 997.85 997.20 996.74 996.52 996.57 996.88
1005.74 1005.54 1005.36 1005.18 1005.02 1004.87 1004.74 1004.65 1004.60 1004.60 1004.64 1004.71 1004.79 1004.86 1004.87 1004.79 1004.61 1004.30 1003.89 1003.39 1002.84 1002.29 1001.81 1001.43 1001.19 1001.11 1001.17 1001.35 1001.58 1001.81 1001.96 1001.97 1001.80 1001.42 1000.85 1000.10 999.26 998.37 997.52 996.80 996.26 995.95 995.93 996.19
1005.45 1005.34 1005.26 1005.21 1005.18 1005.15 1005.14 1005.13 1005.14 1005.17 1005.21 1005.24 1005.26 1005.24 1005.14 1004.96 1004.67 1004.27 1003.77 1003.20 1002.59 1001.99 1001.46 1001.04 1000.77 1000.66 1000.69 1000.85 1001.08 1001.31 1001.47 1001.51 1001.36 1001.02 1000.46 999.73 998.87 997.95 997.05 996.25 995.64 995.27 995.19 995.42
1005.20 1005.18 1005.21 1005.28 1005.37 1005.46 1005.54 1005.61 1005.67 1005.70 1005.71 1005.69 1005.61 1005.48 1005.26 1004.96 1004.56 1004.05 1003.47 1002.83 1002.17 1001.54 1000.98 1000.55 1000.26 1000.14 1000.17 1000.33 1000.56 1000.80 1000.97 1001.02 1000.90 1000.56 1000.01 999.26 998.37 997.40 996.45 995.59 994.91 994.49 994.39 994.62
1004.94 1004.99 1005.12 1005.30 1005.50 1005.70 1005.87 1006.00 1006.09 1006.12 1006.08 1005.99 1005.82 1005.57 1005.23 1004.81 1004.30 1003.70 1003.05 1002.35 1001.66 1001.02 1000.47 1000.04 999.77 999.65 999.69 999.86 1000.09 1000.34 1000.51 1000.56 1000.43 1000.08 999.50 998.72 997.79 996.78 995.76 994.85 994.14 993.69 993.59 993.85
1004.65 1004.77 1004.98 1005.25 1005.54 1005.83 1006.07 1006.26 1006.36 1006.38 1006.31 1006.15 1005.90 1005.55 1005.11 1004.59 1003.99 1003.32 1002.61 1001.89 1001.19 1000.55 1000.02 999.61 999.36 999.28 999.33 999.51 999.74 999.97 1000.13 1000.15 999.99 999.60 998.99 998.16 997.18 996.12 995.07 994.13 993.39 992.95 992.87 993.18
1004.35 1004.53 1004.80 1005.14 1005.51 1005.86 1006.17 1006.39 1006.51 1006.53 1006.43 1006.22 1005.90 1005.48 1004.97 1004.37 1003.71 1003.00 1002.27 1001.54 1000.85 1000.24 999.73 999.36 999.14 999.07 999.13 999.30 999.51 999.71 999.82 999.79 999.57 999.13 998.46 997.58 996.56 995.47 994.41 993.47 992.76 992.36 992.34 992.72
1004.10 1004.32 1004.65 1005.05 1005.47 1005.87 1006.21 1006.46 1006.60 1006.61 1006.49 1006.25 1005.89 1005.42 1004.86 1004.23 1003.54 1002.81 1002.08 1001.37 1000.70 1000.12 999.65 999.30 999.09 999.03 999.07 999.20 999.36 999.49 999.53 999.42 999.12 998.61 997.88 996.97 995.93 994.84 993.81 992.93 992.28 991.96 992.04 992.52
1003.95 1004.21 1004.57 1005.01 1005.46 1005.89 1006.26 1006.52 1006.66 1006.67 1006.53 1006.27 1005.88 1005.39 1004.81 1004.17 1003.48 1002.76 1002.05 1001.36 1000.73 1000.18 999.73 999.39 999.18 999.09 999.08 999.14 999.21 999.23 999.16 998.95 998.56 997.97 997.20 996.27 995.25 994.23 993.28 992.50 991.98 991.80 992.01 992.61
1003.94 1004.22 1004.61 1005.06 1005.53 1005.97 1006.33 1006.59 1006.72 1006.71 1006.56 1006.28 1005.89 1005.39 1004.81 1004.17 1003.50 1002.81 1002.12 1001.47 1000.87 1000.34 999.90 999.55 999.30 999.14 999.05 998.99 998.93 998.82 998.62 998.28 997.79 997.14 996.35 995.45 994.50 993.59 992.78 992.18 991.85 991.85 992.23 992.99
1004.07 1004.37 1004.77 1005.22 1005.68 1006.09 1006.43 1006.66 1006.76 1006.72 1006.55 1006.26 1005.85 1005.36 1004.79 1004.18 1003.53 1002.88 1002.23 1001.61 1001.03 1000.51 1000.05 999.66 999.34 999.09 998.87 998.66 998.44 998.17 997.81 997.35 996.77 996.08 995.29 994.46 993.64 992.90 992.31 991.94 991.85 992.09 992.68 993.61
1004.33 1004.64 1005.02 1005.45 1005.86 1006.23 1006.52 1006.70 1006.75 1006.67 1006.47 1006.16 1005.74 1005.26 1004.71 1004.12 1003.51 1002.89 1002.28 1001.69 1001.12 1000.59 1000.09 999.64 999.22 998.84 998.46 998.08 997.68 997.23 996.72 996.14 995.49 994.78 994.05 993.34 992.69 992.18 991.85 991.77 991.97 992.47 993.29 994.41
1004.66 1004.97 1005.32 1005.70 1006.05 1006.35 1006.56 1006.66 1006.65 1006.52 1006.27 1005.93 1005.51 1005.03 1004.50 1003.95 1003.38 1002.80 1002.22 1001.64 1001.08 1000.52 999.98 999.44 998.90 998.37 997.82 997.26 996.67 996.05 995.40 994.72 994.02 993.34 992.69 992.14 991.71 991.46 991.43 991.66 992.17 992.96 994.03 995.34
1005.04 1005.31 1005.61 1005.92 1006.18 1006.39 1006.50 1006.51 1006.42 1006.22 1005.93 1005.57 1005.14 1004.66 1004.16 1003.63 1003.10 1002.56 1002.01 1001.45 1000.88 1000.29 999.69 999.05 998.40 997.71 997.00 996.27 995.51 994.74 993.97 993.22 992.51 991.88 991.36 990.99 990.81 990.84 991.12 991.67 992.48 993.55 994.84 996.33
1005.39 1005.61 1005.84 1006.06 1006.22 1006.32 1006.33 1006.24 1006.06 1005.80 1005.46 1005.06 1004.63 1004.17 1003.69 1003.20 1002.70 1002.20 1001.68 1001.13 1000.55 999.93 999.26 998.55 997.78 996.96 996.11 995.22 994.33 993.45 992.60 991.82 991.14 990.60 990.22 990.05 990.11 990.42 991.00 991.84 992.93 994.23 995.72 997.35
1005.68 1005.83 1005.98 1006.09 1006.15 1006.13 1006.03 1005.85 1005.59 1005.26 1004.88 1004.47 1004.03 1003.59 1003.14 1002.68 1002.23 1001.76 1001.26 1000.73 1000.14 999.49 998.78 997.98 997.13 996.21 995.25 994.26 993.28 992.34 991.46 990.70 990.08 989.64 989.42 989.46 989.75 990.31 991.14 992.23 993.53 995.03 996.66 998.38
1005.87 1005.95 1006.00 1006.01 1005.95 1005.83 1005.63 1005.36 1005.03 1004.66 1004.25 1003.82 1003.40 1002.97 1002.55 1002.14 1001.72 1001.28 1000.80 1000.28 999.69 999.02 998.27 997.43 996.51 995.53 994.51 993.48 992.46 991.51 990.66 989.96 989.43 989.13 989.08 989.29 989.79 990.57 991.60 992.87 994.33 995.94 997.66 999.42
1005.95 1005.94 1005.90 1005.81 1005.65 1005.43 1005.15 1004.81 1004.43 1004.03 1003.60 1003.18 1002.77 1002.37 1001.98 1001.59 1001.20 1000.79 1000.33 999.82 999.22 998.54 997.77 996.91 995.97 994.98 993.95 992.92 991.93 991.03 990.26 989.66 989.26 989.10 989.21 989.60 990.27 991.20 992.38 993.76 995.31 996.97 998.71 1000.46
1005.89 1005.80 1005.68 1005.50 1005.26 1004.97 1004.63 1004.24 1003.83 1003.41 1002.98 1002.57 1002.17 1001.80 1001.43 1001.07 1000.70 1000.30 999.86 999.34 998.75 998.07 997.29 996.44 995.51 994.54 993.56 992.59 991.69 990.89 990.24 989.77 989.53 989.53 989.79 990.33 991.13 992.18 993.44 994.87 996.44 998.10 999.80 1001.49
1005.70 1005.54 1005.35 1005.11 1004.81 1004.47 1004.09 1003.67 1003.25 1002.83 1002.41 1002.01 1001.64 1001.28 1000.93 1000.58 1000.22 999.82 999.38 998.86 998.26 997.59 996.83 996.00 995.12 994.21 993.31 992.45 991.67 991.02 990.53 990.23 990.15 990.32 990.73 991.40 992.30 993.41 994.71 996.14 997.68 999.28 1000.90 1002.50
1005.39 1005.19 1004.94 1004.65 1004.32 1003.95 1003.55 1003.13 1002.71 1002.30 1001.90 1001.51 1001.15 1000.81 1000.47 1000.12 999.75 999.34 998.88 998.36 997.76 997.09 996.36 995.58 994.77 993.95 993.17 992.45 991.84 991.36 991.05 990.93 991.03 991.35 991.90 992.68 993.65 994.80 996.09 997.49 998.97 1000.48 1002.00 1003.49
1005.00 1004.76 1004.49 1004.17 1003.82 1003.44 1003.04 1002.63 1002.22 1001.82 1001.44 1001.07 1000.72 1000.37 1000.03 999.67 999.28 998.85 998.38 997.84 997.24 996.59 995.90 995.18 994.46 993.76 993.11 992.56 992.12 991.83 991.72 991.79 992.05 992.52 993.19 994.05 995.07 996.23 997.50 998.85 1000.24 1001.66 1003.07 1004.46
Thickness
5466 5470 5469 5467 5468 5467 5459 5457 5453 5466 5473 5483 5485 5485 5487 5489 5490 5492 5495 5498 5501 5503 5507 5512 5517 5522 5528 5533 5538 5543 5549 5556 5563 5571 5579 5586 5593 5599 5604 5608 5613 5615 5617 5617
5461 5469 5470 5470 5475 5473 5469 5467 5464 5465 5472 5481 5480 5482 5483 5482 5483 5485 5487 5491 5495 5498 5501 5504 5509 5515 5520 5525 5531 5536 5542 5549 5556 5563 5571 5578 5584 5592 5597 5601 5606 5609 5611 5613
5451 5466 5462 5464 5480 5477 5473 5472 5466 5462 5468 5473 5473 5476 5475 5475 5476 5476 5479 5483 5486 5490 5493 5498 5502 5508 5513 5519 5525 5531 5537 5543 5549 5556 5563 5570 5576 5583 5589 5594 5599 5602 5605 5607
5438 5442 5437 5474 5488 5483 5475 5473 5469 5466 5467 5467 5467 5469 5470 5470 5468 5468 5471 5473 5477 5481 5487 5492 5497 5502 5507 5513 5518 5524 5530 5537 5543 5550 5556 5562 5568 5574 5581 5587 5591 5595 5598 5601
5428 5428 5445 5474 5479 5473 5462 5460 5464 5460 5459 5459 5459 5460 5463 5465 5462 5460 5461 5465 5469 5474 5479 5486 5490 5496 5500 5506 5511 5517 5524 5530 5537 5543 5548 5554 5559 5565 5572 5578 5584 5587 5590 5593
5423 5420 5433 5468 5469 5465 5455 5444 5456 5454 5451 5450 5448 5438 5447 5454 5454 5454 5456 5458 5463 5467 5473 5478 5483 5488 5493 5498 5504 5511 5518 5524 5530 5535 5541 5546 5552 5558 5564 5569 5575 5579 5582 5585
5416 5416 5435 5463 5460 5453 5432 5435 5447 5447 5443 5440 5436 5432 5439 5444 5446 5447 5449 5452 5456 5461 5465 5471 5476 5481 5486 5491 5498 5505 5511 5518 5523 5528 5534 5539 5544 5550 5556 5560 5566 5570 5573 5576
5417 5413 5431 5457 5448 5437 5435 5441 5440 5438 5435 5433 5432 5433 5434 5435 5436 5438 5440 5444 5449 5453 5458 5464 5469 5473 5480 5485 5492 5498 5504 5510 5516 5521 5526 5531 5537 5542 5548 5552 5557 5561 5564 5567
5432 5440 5454 5451 5444 5441 5437 5434 5432 5429 5427 5426 5424 5424 5425 5425 5427 5430 5432 5435 5439 5443 5449 5455 5460 5466 5471 5479 5485 5490 5496 5502 5508 5514 5519 5524 5529 5534 5540 5544 5549 5553 5556 5558
5433 5443 5446 5445 5440 5436 5431 5426 5424 5421 5419 5416 5414 5415 5416 5417 5420 5422 5424 5427 5431 5435 5440 5446 5452 5457 5464 5471 5477 5482 5488 5494 5500 5505 5511 5516 5522 5527 5532 5537 5542 5545 5547 5549
5426 5434 5435 5436 5432 5428 5424 5420 5416 5413 5411 5408 5405 5406 5407 5409 5412 5414 5417 5421 5423 5427 5432 5439 5444 5450 5457 5462 5468 5473 5479 5485 5491 5497 5502 5508 5514 5520 5525 5530 5536 5541 5543 5544
5424 5431 5424 5423 5423 5419 5414 5410 5407 5404 5402 5400 5398 5398 5400 5402 5405 5407 5410 5414 5417 5421 5426 5431 5437 5444 5449 5455 5460 5465 5470 5475 5481 5487 5493 5500 5505 5510 5515 5521 5527 5531 5535 5537
5429 5427 5421 5418 5414 5410 5405 5402 5399 5396 5393 5392 5391 5392 5393 5395 5398 5400 5404 5407 5411 5415 5420 5425 5430 5436 5441 5447 5452 5457 5461 5466 5472 5479 5485 5491 5497 5501 5505 5510 5516 5521 5525 5528
5423 5416 5411 5408 5403 5400 5396 5394 5391 5389 5387 5385 5385 5385 5386 5387 5390 5392 5395 5399 5403 5408 5413 5419 5425 5430 5434 5439 5443 5448 5453 5458 5464 5470 5476 5482 5487 5492 5497 5502 5506 5510 5513 5517
5413 5408 5403 5399 5395 5391 5388 5384 5381 5379 5378 5378 5378 5377 5378 5380 5382 5385 5388 5392 5396 5400 5406 5412 5417 5422 5426 5430 5435 5440 5445 5451 5456 5462 5467 5473 5478 5484 5488 5492 5497 5501 5503 5505
5403 5398 5393 5389 5385 5382 5378 5375 5371 5371 5370 5370 5369 5370 5371 5372 5375 5378 5381 5384 5387 5393 5399 5404 5409 5414 5418 5423 5427 5432 5437 5442 5448 5453 5459 5465 5470 5475 5479 5483 5488 5491 5494 5496
5388 5384 5380 5376 5373 5371 5368 5365 5363 5362 5361 5361 5361 5361 5363 5365 5368 5371 5374 5377 5381 5386 5391 5396 5401 5406 5410 5415 5420 5424 5429 5434 5440 5445 5451 5457 5462 5466 5471 5475 5478 5482 5485 5488
5381 5377 5373 5369 5364 5361 5359 5357 5355 5353 5352 5352 5352 5353 5355 5357 5360 5363 5366 5370 5374 5379 5384 5389 5394 5399 5404 5409 5413 5417 5421 5426 5432 5437 5443 5449 5454 5459 5463 5466 5470 5473 5476 5477
5372 5367 5363 5359 5356 5352 5349 5347 5345 5344 5344 5344 5343 5344 5347 5349 5352 5355 5358 5362 5366 5371 5377 5381 5387 5392 5396 5401 5406 5410 5414 5419 5424 5430 5436 5442 5447 5451 5455 5458 5461 5464 5467 5469
5358 5355 5351 5348 5345 5342 5339 5337 5336 5335 5335 5335 5335 5336 5339 5342 5345 5348 5351 5355 5359 5364 5369 5374 5379 5384 5389 5395 5400 5404 5408 5413 5418 5423 5429 5435 5439 5443 5446 5450 5453 5455 5458 5461
5344 5342 5339 5335 5333 5331 5329 5328 5326 5326 5326 5326 5326 5328 5331 5335 5338 5340 5344 5349 5355 5358 5363 5369 5373 5378 5383 5388 5394 5398 5403 5407 5412 5417 5423 5428 5432 5435 5438 5441 5444 5448 5450 5452
5331 5329 5326 5324 5322 5320 5319 5318 5317 5317 5317 5317 5319 5320 5323 5327 5331 5334 5338 5342 5348 5353 5358 5363 5367 5373 5378 5383 5388 5393 5397 5401 5406 5411 5416 5420 5424 5428 5431 5434 5437 5440 5443 5445
5320 5318 5315 5312 5311 5310 5310 5309 5308 5308 5309 5310 5312 5314 5316 5320 5324 5327 5333 5338 5342 5347 5353 5358 5362 5368 5373 5378 5384 5388 5393 5397 5401 5406 5410 5414 5418 5422 5425 5428 5431 5434 5436 5439
5308 5306 5303 5301 5300 5299 5299 5300 5300 5301 5302 5304 5306 5308 5310 5314 5319 5323 5327 5333 5337 5343 5348 5353 5359 5364 5370 5374 5379 5384 5388 5392 5396 5400 5404 5408 5412 5416 5419 5422 5425 5428 5431 5433
5296 5294 5292 5290 5290 5290 5291 5292 5292 5293 5295 5298 5300 5303 5306 5309 5313 5318 5322 5327 5333 5338 5344 5349 5355 5360 5365 5370 5375 5379 5383 5388 5392 5396 5400 5404 5408 5411 5414 5417 5420 5423 5426 5428
5286 5284 5284 5283 5282 5282 5282 5283 5284 5286 5288 5291 5294 5297 5300 5304 5308 5313 5317 5323 5328 5334 5340 5345 5350 5355 5361 5367 5371 5376 5380 5385 5389 5393 5396 5400 5403 5407 5409 5412 5415 5418 5421 5424
5276 5276 5275 5275 5275 5275 5275 5276 5277 5278 5280 5283 5287 5291 5294 5299 5303 5308 5313 5319 5325 5330 5336 5341 5347 5352 5358 5363 5368 5373 5378 5382 5386 5389 5392 5396 5399 5403 5405 5408 5411 5414 5417 5420